Helicity
225 197 185 187 182 154 168 190 206 182 141 177 209 173 181 181 164 185 149 207 188 153 147 120 126 145 141 123 128 89 64 103 90 75 84 94 117 95
237 205 212 205 196 187 182 196 210 216 191 236 229 216 225 214 168 202 194 200 157 116 101 119 140 141 132 136 132 158 115 108 101 88 88 88 100 72
258 213 175 193 197 227 233 240 239 285 267 244 254 244 253 220 228 211 177 192 157 147 121 109 121 126 133 136 137 160 156 112 103 111 91 95 108 105
226 210 196 240 231 259 254 233 265 285 299 293 291 289 281 231 218 198 185 212 175 124 110 93 107 132 145 142 134 144 125 171 144 135 105 84 113 131
231 223 234 244 257 277 268 267 294 311 295 335 327 321 293 278 311 238 204 123 120 117 125 114 113 118 122 128 125 107 97 74 113 106 86 52 100 102
247 228 244 230 242 255 284 280 311 297 326 363 359 353 322 304 316 242 122 99 100 122 126 122 122 108 114 127 108 108 110 81 85 123 93 117 115 106
212 209 224 217 227 274 330 310 341 343 384 382 379 376 312 307 212 154 120 106 94 111 129 123 118 112 108 116 147 160 126 118 115 118 133 123 158 145
222 205 216 236 226 228 272 292 304 342 362 423 379 332 339 240 239 145 127 110 110 135 139 116 117 110 109 112 142 141 148 136 132 132 143 145 148 143
198 225 266 307 282 313 304 359 314 483 400 353 383 192 251 166 168 155 139 133 131 141 135 112 125 103 102 113 118 117 112 116 125 114 116 130 125 132
247 275 257 295 305 412 464 358 352 359 476 342 261 137 115 161 161 144 138 144 145 133 143 121 133 105 99 106 105 89 90 97 100 100 78 99 120 139
290 366 322 376 341 372 397 532 600 446 227 159 106 151 204 205 190 203 169 164 104 112 133 133 123 111 106 113 113 84 81 97 96 85 78 73 95 83
228 209 152 280 297 385 484 353 211 191 234 275 294 289 256 201 148 164 161 158 153 143 133 141 130 127 145 117 112 99 85 77 93 74 72 79 75 126
80 168 127 142 192 267 314 280 224 293 346 370 354 341 291 234 194 142 127 153 159 142 141 160 125 121 125 122 112 109 87 91 100 92 82 62 74 104
120 177 192 169 189 222 249 237 341 373 442 398 366 311 265 196 151 143 136 138 157 138 145 134 121 129 124 123 118 115 105 102 100 87 72 70 74 76
116 127 156 141 166 247 326 266 311 433 380 364 327 299 217 179 190 181 170 148 133 121 128 128 129 123 114 120 120 124 124 100 91 95 86 74 80 96
126 103 112 122 177 288 373 378 326 329 357 367 341 290 279 260 247 213 173 128 98 113 124 122 119 111 125 104 103 113 99 110 89 97 114 96 88 88
178 201 216 238 341 472 444 480 434 398 414 437 400 330 309 288 264 241 218 170 123 113 127 127 121 107 100 110 111 108 100 96 74 63 62 56 63 69
168 274 213 208 230 261 331 325 338 316 282 288 334 317 327 264 282 256 216 174 159 139 136 138 140 130 127 99 71 121 104 98 84 72 78 69 63 63
134 163 222 257 287 300 328 355 392 372 400 378 355 328 327 293 248 245 226 222 178 167 148 148 144 159 148 148 119 54 99 88 92 79 70 77 80 69
95 61 104 144 203 248 283 306 348 393 375 336 335 341 311 277 258 215 214 188 187 186 173 157 148 156 164 117 124 105 60 95 90 90 85 85 77 39
77 101 90 124 109 155 211 242 275 311 314 319 309 333 306 260 214 214 197 147 172 191 160 143 123 92 156 140 117 113 108 62 77 88 79 80 91 99
87 106 88 95 137 153 174 192 231 238 271 288 317 273 244 220 212 201 180 171 170 174 164 165 159 175 160 132 103 119 113 103 98 58 30 53 87 98
40 57 90 61 87 159 198 208 216 239 256 275 278 248 204 183 157 155 166 172 194 200 191 169 165 163 128 117 100 110 102 95 85 84 79 27 25 26
Wind_Speed
57 55 54 52 50 47 44 43 44 45 46 41 39 35 35 37 39 40 43 43 48 51 50 51 49 51 52 52 51 51 33 33 33 36 37 39 40 36
58 57 59 56 50 49 48 48 46 46 50 41 40 38 35 35 38 40 42 43 52 56 55 54 53 51 52 51 50 49 40 30 29 30 31 35 35 27
59 60 57 54 55 53 52 49 46 44 46 47 44 37 39 41 46 46 49 48 54 55 57 55 51 51 50 51 49 44 43 32 26 24 27 30 26 29
60 59 59 57 57 53 49 49 48 46 48 50 46 43 42 43 49 51 56 56 53 55 55 56 54 48 48 46 44 41 39 36 27 27 23 24 22 21
59 61 61 56 55 54 52 52 50 47 45 46 49 45 45 45 52 55 61 55 55 57 56 55 53 49 45 43 42 38 34 29 27 21 21 22 16 17
60 62 60 57 57 56 55 54 50 47 47 47 47 48 50 47 51 54 56 55 57 55 51 50 50 46 42 40 39 36 33 25 20 20 23 18 13 15
60 63 61 58 58 58 53 53 52 52 47 49 54 52 51 48 46 46 52 56 55 51 53 51 51 46 42 39 35 30 27 25 18 20 19 19 16 18
64 59 59 57 50 50 53 47 50 48 49 49 54 56 46 43 45 45 50 57 60 50 55 55 50 47 42 36 36 26 22 22 20 21 22 21 20 19
54 57 56 56 52 49 51 51 52 51 44 42 48 45 45 37 40 44 48 54 55 50 52 54 46 46 40 38 31 27 24 22 20 21 22 22 21 21
56 54 54 54 51 55 54 49 45 46 45 40 40 36 33 31 41 43 44 48 50 50 45 54 45 44 40 38 35 29 24 23 20 21 21 21 20 20
48 60 53 56 49 50 46 47 51 50 45 39 34 28 29 28 32 36 43 48 56 50 39 42 41 43 40 39 37 32 25 21 23 22 22 19 18 19
32 38 42 46 40 44 49 37 32 33 35 36 35 31 29 30 31 37 39 49 48 50 35 37 39 39 45 34 33 32 27 25 28 29 27 20 16 18
42 42 44 45 42 32 43 47 42 40 40 40 38 37 37 37 38 38 37 40 43 42 32 30 35 35 35 36 34 31 31 30 31 33 33 24 23 16
58 55 51 47 45 42 49 55 56 42 44 40 41 43 40 37 36 32 34 35 35 36 31 31 37 35 36 42 39 37 34 35 35 36 33 33 29 21
65 64 64 67 64 57 55 48 44 45 42 44 42 41 38 33 27 29 32 35 37 37 36 36 35 35 35 37 38 38 41 40 39 37 36 37 32 25
74 71 67 64 61 62 56 53 48 43 45 46 44 39 33 32 33 31 35 36 41 40 35 35 36 35 36 35 37 41 43 43 39 34 38 40 36 30
73 72 71 66 65 65 62 59 60 57 55 50 47 40 40 39 38 34 37 33 38 39 37 33 34 34 38 40 44 43 45 42 42 46 45 44 39 34
75 77 78 73 71 71 70 66 55 48 46 40 42 43 40 35 33 32 33 33 35 35 36 35 36 43 46 43 33 43 39 41 41 41 38 40 45 39
85 86 88 87 88 85 76 72 69 64 61 60 50 44 38 37 35 33 32 35 37 36 36 35 36 40 46 49 45 28 35 36 37 39 38 37 41 39
86 89 93 90 89 84 79 74 63 54 51 49 46 41 37 35 33 32 30 31 34 35 36 39 40 36 39 44 43 39 26 32 37 40 44 41 40 40
89 92 88 88 85 81 80 73 64 61 53 49 46 42 37 35 36 36 32 31 34 38 41 41 37 30 29 33 41 40 37 32 33 37 40 42 40 37
82 85 85 85 82 75 66 60 64 68 54 51 50 43 45 39 36 35 35 35 39 39 40 37 32 26 27 27 31 35 39 42 42 44 38 31 35 37
82 81 78 83 80 74 65 67 57 45 58 46 50 47 42 42 38 37 38 38 38 36 35 34 30 29 28 28 31 33 38 39 42 48 46 34 28 32
Wind_Direction
242 246 251 257 261 269 274 279 282 289 291 299 309 315 319 323 326 334 334 337 333 329 330 330 332 330 330 329 331 334 342 350 358 2 6 11 16 23
245 248 252 257 260 266 271 276 283 287 293 300 304 311 313 318 322 329 329 334 324 323 325 328 330 330 328 329 331 334 338 348 355 360 5 9 13 24
246 249 253 257 261 263 268 273 277 284 289 299 305 307 308 310 317 320 321 325 320 322 324 326 329 329 328 328 331 335 336 339 350 1 360 6 21 25
247 251 254 257 260 261 265 268 274 279 287 292 298 301 306 309 311 313 312 317 316 318 322 326 328 330 330 331 333 335 338 344 348 350 360 6 13 20
251 252 255 255 257 260 264 268 273 277 285 293 294 299 306 310 310 312 309 310 314 316 320 323 327 330 331 330 333 335 338 340 345 347 351 352 9 22
252 254 256 255 256 259 263 266 270 275 284 286 288 294 302 308 310 309 307 309 312 316 322 324 329 333 333 333 332 334 338 341 345 348 348 355 17 12
255 258 258 257 257 258 259 262 266 272 277 280 285 292 297 300 302 309 307 310 313 315 316 319 323 330 335 336 339 344 353 359 0 353 355 359 2 358
259 260 261 258 251 251 257 256 263 264 270 274 281 289 290 296 297 300 306 308 310 316 315 316 322 325 331 338 343 351 356 3 5 356 352 350 349 354
259 262 261 261 257 256 260 265 271 271 269 270 282 284 286 289 292 300 306 308 308 313 316 314 324 325 334 338 347 349 350 356 0 351 345 343 348 346
264 263 259 258 256 256 259 260 266 270 273 274 281 280 287 292 295 306 310 312 312 313 316 311 325 328 336 341 343 342 345 349 349 342 335 333 338 341
268 268 253 262 258 255 253 262 269 266 264 276 276 276 288 294 301 310 310 309 306 311 320 321 325 328 335 339 344 345 342 341 340 335 330 333 340 343
261 273 270 264 257 256 257 240 242 251 259 268 271 277 284 292 297 304 305 304 311 312 320 321 325 330 326 340 343 347 347 339 331 328 325 331 329 332
279 276 273 266 252 245 251 250 255 262 260 260 266 276 284 290 296 302 306 309 311 313 328 327 327 328 329 331 335 342 342 337 333 326 322 325 323 325
285 281 278 266 258 255 255 260 268 261 261 260 269 275 282 287 295 307 314 317 322 321 327 326 323 323 323 322 325 333 331 328 326 324 325 319 318 321
289 285 280 272 267 263 262 261 259 263 253 264 266 273 278 286 296 306 314 318 318 319 319 319 317 319 319 320 323 325 324 322 322 320 321 316 318 322
290 286 282 275 268 264 262 259 258 251 254 260 267 273 276 279 286 295 302 309 311 316 320 319 317 315 316 315 316 317 315 315 325 326 314 312 314 317
289 285 280 276 268 262 261 261 261 262 260 260 266 267 273 276 280 285 296 305 310 316 316 318 316 313 310 311 312 311 312 315 315 307 306 307 310 313
288 280 276 272 266 263 259 258 257 257 257 261 262 261 267 267 277 285 293 296 300 305 310 314 313 309 309 310 307 309 314 314 316 313 311 311 309 312
286 281 277 271 266 264 261 258 258 258 260 260 263 265 265 265 269 275 281 291 296 301 306 309 309 306 304 304 311 311 312 316 318 318 315 313 313 316
283 280 276 273 270 266 263 261 259 257 254 254 255 255 254 255 264 268 273 283 292 298 302 304 303 300 301 304 308 314 313 311 314 314 312 315 317 319
290 281 278 275 271 270 266 264 261 259 253 250 252 250 245 248 260 269 274 280 289 295 297 298 300 303 306 309 306 309 313 311 309 309 312 313 318 323
299 287 279 273 270 268 266 262 259 257 257 253 253 250 250 251 261 269 276 282 287 293 296 303 306 303 302 300 302 305 307 307 306 305 307 310 314 316
299 292 283 271 267 267 267 263 262 257 255 252 252 249 249 257 264 272 280 285 288 291 295 297 300 302 300 299 301 304 304 307 308 305 305 308 304 304